Flag for Norway

Past Weather in Oslo, Norway — Yesterday and Last 2 Weeks

Now
59 °F

Sunny.


Feels Like: 58 °F
Forecast: 68 / 49 °F
Wind: 8 mph from South

Location: Oslo Gardermoen Airport
Current Time: Sep 20, 2020 at 2:18:29 pm
Latest Report: Sep 20, 2020 at 1:20 pm
Visibility: 10 mi
Pressure30.07 "Hg
Humidity: 68%
Dew Point: 48 °F
Location of OsloLocation

Past Weather in Oslo — Graph

°F

Oslo Temperature Yesterday

Maximum temperature yesterday: 63 °F (at 2:50 pm)
Minimum temperature yesterday: 43 °F (at 6:50 am)
Average temperature yesterday: 52 °F

High & Low Weather Summary for the Past Weeks

 TemperatureHumidityPressure
High72 °F (Sep 18, 3:20 pm)100% (Sep 6, 6:20 am)30.45 "Hg (Sep 6, 6:20 am)
Low37 °F (Sep 18, 4:20 am)31% (Sep 10, 3:50 pm)29.53 "Hg (Sep 5, 4:50 pm)
Average53 °F72%29.91 "Hg
* Reported Sep 5 1:20 pm — Sep 20 1:20 pm, Oslo. Weather by CustomWeather, © 2020

Note: Actual official high and low records may vary slightly from our data, if they occured in-between our weather recording intervals... More about our weather records

Oslo Weather History for the Previous 24 Hours

Scroll right to see more
 ConditionsComfort  
Time TempWeatherWind HumidityBarometerVisibility
1:20 pm
Sun, Sep 20
59 °FSunny.8 mph68%30.07 "Hg10 mi
12:50 pm59 °FPassing clouds.7 mph63%30.09 "HgN/A
12:20 pm57 °FPassing clouds.6 mph63%30.09 "HgN/A
11:50 am55 °FPassing clouds.5 mph67%30.09 "HgN/A
11:20 am54 °FPassing clouds.5 mph77%30.09 "HgN/A
10:50 am52 °FPassing clouds.3 mph82%30.09 "HgN/A
10:20 am48 °FSunny.2 mph87%30.09 "Hg10 mi
9:20 am46 °FFog.3 mph93%30.09 "HgN/A
8:20 am43 °FQuite cool.3 mph93%30.12 "HgN/A
7:50 am41 °FSleet. Fog.2 mph100%30.12 "Hg6 mi
7:20 am39 °FSleet. Fog.3 mph100%30.12 "Hg6 mi
6:50 am39 °FChilly.2 mph100%30.12 "Hg6 mi
6:20 am41 °FQuite cool.2 mph100%30.12 "Hg4 mi
5:50 am48 °FPassing clouds.7 mph100%30.12 "Hg5 mi
5:20 am48 °FFog.6 mph100%30.12 "Hg4 mi
4:50 am46 °FRain. Overcast.1 mph100%30.12 "Hg4 mi
4:20 am43 °FLow clouds.5 mph93%30.12 "Hg6 mi
3:50 am46 °FPassing clouds.7 mph93%30.12 "Hg6 mi
3:20 am43 °FPassing clouds.6 mph100%30.15 "HgN/A
2:50 am41 °FPassing clouds.1 mph93%30.15 "HgN/A
2:20 am41 °FFog.No wind87%30.15 "HgN/A
1:50 am41 °FClear.2 mph87%30.15 "Hg10 mi
1:20 am41 °FClear.2 mph87%30.18 "Hg10 mi
12:50 am41 °FClear.2 mph93%30.18 "Hg10 mi
12:20 am43 °FClear.No wind81%30.18 "Hg10 mi
11:50 pm
Sat, Sep 19
43 °FClear.2 mph81%30.18 "Hg10 mi
11:20 pm45 °FClear.2 mph81%30.18 "Hg10 mi
10:50 pm45 °FClear.No wind87%30.18 "Hg10 mi
10:20 pm46 °FClear.2 mph82%30.18 "Hg10 mi
9:50 pm48 °FClear.2 mph76%30.18 "Hg10 mi
9:20 pm48 °FClear.2 mph76%30.18 "Hg10 mi
8:50 pm52 °FClear.No wind72%30.18 "Hg10 mi
8:20 pm54 °FClear.1 mph63%30.18 "Hg10 mi
7:50 pm55 °FClear.No wind55%30.18 "Hg10 mi
7:20 pm59 °FPassing clouds.5 mph48%30.18 "HgN/A
6:50 pm61 °FSunny.7 mph45%30.18 "Hg10 mi
6:20 pm61 °FPassing clouds.6 mph45%30.18 "HgN/A
5:50 pm63 °FPassing clouds.6 mph39%30.21 "HgN/A
5:20 pm63 °FPassing clouds.6 mph39%30.21 "HgN/A
4:50 pm63 °FPassing clouds.5 mph37%30.21 "HgN/A
4:20 pm63 °FSunny.2 mph39%30.21 "Hg10 mi
3:50 pm63 °FSunny.2 mph37%30.24 "Hg10 mi
3:20 pm63 °FPassing clouds.5 mph39%30.24 "HgN/A
2:50 pm63 °FPassing clouds.3 mph39%30.24 "HgN/A
Weather by CustomWeather, © 2020

See weather overview